Location: ??
(34.7018°N, 135.5630°E)
Time: 06:12:11
(UTC+00:00)

Daily predictions for brighter satellites

Satellite Brightness Start Highest point End
(mag) Time Altitude Azimuth Time Altitude Azimuth Time Altitude Azimuth
SL-8 Rocket 4.1 12:04:57 10° N 12:11:11 71° W 12:11:11 71° W
Resurs 01 Rocket 3.8 12:24:06 23° WNW 12:24:06 23° WNW 12:26:32 10° NW
Cosmos 2366 rocket 4.4 12:18:24 10° NNW 12:23:27 58° NW 12:23:27 58° NW
CZ-4C R/B 4.2 13:24:15 10° NNW 13:28:35 34° N 13:28:35 34° N
SL-16 R/B 4.5 16:17:15 23° N 16:17:15 23° N 16:19:34 10° N
CZ-2D R/B 4.4 16:56:12 10° N 16:57:44 19° N 16:57:44 19° N
CENTAUR R/B 3.9 17:03:37 30° ENE 17:03:37 30° ENE 17:07:27 10° NE
Cosmos 2237 Rocket 4.1 17:12:37 10° NNW 17:14:37 22° N 17:14:37 22° N
VEP-3 4.4 17:21:14 39° SSE 17:21:25 39° SSE 17:43:06 10° E
NOSS 3-2 (C) 4.1 17:32:51 49° NE 17:32:51 49° NE 17:37:22 10° NNE
Cosmos 2297 Rocket 3.5 17:34:42 33° N 17:34:42 33° N 17:37:52 10° NNE
H-2A R/B 4.4 17:45:31 17° N 17:45:31 17° N 17:46:37 10° N
Cosmos 2142 Rocket 4.5 17:47:10 10° N 17:53:31 78° E 17:53:35 78° E
Cosmos 2227 Rocket 3.4 18:00:45 32° NNW 18:00:45 32° NNW 18:04:21 10° N
ATLAS 3B R/B 2.8 17:58:47 57° SSE 17:59:39 62° ESE 18:06:10 10° NE
ADEOS II 3.5 17:54:53 10° N 17:57:39 28° NNW 17:57:39 28° NNW
USA 267 3.2 17:58:06 10° NE 18:04:34 65° NW 18:05:04 63° WNW
IDEFIX/ARIANE 42P 2.7 18:07:18 10° NNE 18:12:29 66° ESE 18:12:59 62° SE
ATLAS 5 CENTAUR R/B 3.7 18:12:03 31° SSE 18:13:26 35° SE 18:16:34 10° ENE
Nadezhda 4 Rocket 4.4 18:10:58 30° SSE 18:14:02 59° E 18:20:16 10° NNE
ARIANE 5 R/B 3.5 18:10:55 10° N 18:14:29 37° NNW 18:14:29 37° NNW
MSX 4.5 18:13:19 10° NNE 18:18:57 52° E 18:21:57 27° SSE
Spot 4 Rocket 4.4 18:13:54 10° N 18:18:04 51° NNW 18:18:04 51° NNW
Cosmos 2279 Rocket 3.8 18:13:58 10° N 18:20:13 77° W 18:21:29 58° SSW
Cosmos 2221 Rocket 4.0 18:22:50 54° N 18:22:50 54° N 18:26:18 10° N
BREEZE-M DEB 4.4 18:25:32 44° WNW 18:27:01 55° NNW 18:43:39 10° NE
CZ-2C R/B 4.0 18:23:56 10° N 18:26:28 36° N 18:26:28 36° N
PSLV R/B 4.2 18:29:47 10° NNE 18:34:05 54° E 18:35:38 35° SSE
Okean 2 Rocket 3.1 18:29:45 10° N 18:34:17 79° E 18:35:35 46° SSE
Cosmos 2151 Rocket 4.3 18:31:34 10° N 18:35:52 52° E 18:40:09 10° SSE
Cosmos 397 4.4 18:36:15 80° WSW 18:36:27 84° WNW 18:40:35 10° NNE
CZ-4B R/B 2.6 18:36:56 22° SE 18:38:48 44° ENE 18:42:08 10° N
SL-16 R/B 2.0 18:33:47 10° NNW 18:39:28 82° WSW 18:45:07 10° SSE
Gbstr 26 Del rocket 4.0 18:38:37 40° SSW 18:40:57 69° SE 18:46:25 10° NE
Meteor 1-13 Rocket 4.2 18:38:40 32° S 18:41:28 88° E 18:47:08 10° N
Cosmos 494 Rocket 3.9 18:43:08 10° NNW 18:48:24 72° WSW 18:53:37 10° S
CENTAUR R/B 3.3 18:50:47 28° WNW 18:52:15 31° NW 18:58:11 10° NNE
Shenzhou-11 Module 3.3 18:55:32 30° E 18:55:32 30° E 18:57:12 10° ENE
Meteor 1-4 Rocket 2.7 18:56:08 57° WNW 18:56:08 57° WNW 18:59:43 10° N
Cosmos 1818 3.7 18:51:20 10° NNW 18:56:47 74° ENE 19:02:11 10° SE
Cosmos 967 Rocket 4.4 18:53:09 10° NNW 18:59:37 86° WSW 19:05:59 10° SSE
Meteor 1-23 Rocket 4.5 18:57:33 10° S 19:03:13 73° E 19:08:58 10° NNE
ATLAS 5 CENTAUR R/B 3.4 18:58:22 10° NNW 19:04:14 51° NE 19:10:52 10° SE
COBE Rocket 4.1 19:03:28 34° SW 19:04:45 42° W 19:09:13 10° NNW
Cosmos 1867 3.6 19:03:20 33° SW 19:05:37 61° WNW 19:11:02 10° NNE
Cosmos 2263 Rocket 2.2 19:02:31 20° SSW 19:06:31 89° E 19:12:14 10° NNE
Meteor 1-12 Rocket 4.3 19:01:01 10° NNW 19:06:53 64° W 19:12:35 10° S
Cosmos 1269 Rocket 4.0 19:08:15 10° NNW 19:13:30 61° WSW 19:18:42 10° S
Cosmos 2195 Rocket 4.4 19:07:47 10° S 19:13:57 85° W 19:20:12 10° N
Cosmos 1689 Rocket 2.4 19:11:21 10° SSE 19:14:19 65° ENE 19:17:18 10° N
Cosmos 1627 Rocket 4.4 19:12:05 10° S 19:18:14 87° W 19:24:22 10° N
ALOS 4.4 19:14:50 10° NE 19:18:47 27° E 19:22:43 10° SSE
Okean 1 Rocket 3.3 19:14:27 10° N 19:18:50 70° E 19:23:12 10° SSE
Cosmos 1378 4.2 19:15:34 10° SSE 19:19:06 45° E 19:22:41 10° NNE
SJ-6F 4.5 19:16:05 10° NNE 19:20:15 84° ESE 19:24:25 10° S
Chandra Rocket (1) 4.1 19:07:45 20° WSW 19:20:17 59° S 19:25:45 10° ESE
Geosat 4.2 19:17:18 10° NNE 19:22:12 54° WNW 19:25:38 19° SW
Cosmos 1484 Rocket 4.3 19:19:37 10° NNE 19:23:06 35° E 19:26:31 10° SSE
Cosmos 1674 Rocket 4.4 19:31:09 19° SW 19:33:23 30° WNW 19:37:16 10° NNW
Meteor 2-13 Rocket 4.5 19:29:08 10° S 19:35:10 87° E 19:41:15 10° N
CZ-4B R/B 3.6 19:35:09 10° NNE 19:39:32 65° E 19:44:00 10° S
Lacrosse 5 3.7 19:35:50 10° S 19:40:09 29° ESE 19:44:28 10° ENE
BREEZE-M DEB (TANK) 3.5 19:44:15 10° S 19:46:15 19° SE 19:48:03 10° E
CZ-2C R/B 2.8 19:43:01 10° N 19:47:12 37° WNW 19:51:25 10° SW
Spot 2 4.5 19:43:23 10° N 19:48:30 67° WNW 19:53:28 10° SSW
Cosmos 1437 Rocket 3.1 19:46:16 10° SSW 19:50:14 49° W 19:54:12 10° N
ATLAS 3B R/B 3.9 19:46:04 12° W 19:50:43 24° NW 19:56:01 10° N
IDEFIX/ARIANE 42P 4.4 19:49:05 10° NW 19:51:27 13° WNW 19:53:48 10° W
Cosmos 2026 Rocket 4.3 19:50:38 10° SSW 19:56:23 43° W 20:02:08 10° N
CRYOSAT 2 4.4 19:51:49 10° N 19:56:42 90° WSW 20:01:33 10° S
Cosmos 1943 3.2 19:51:44 10° NNW 19:57:28 87° WSW 20:03:09 10° SSE
STARLINK-1139 4.4 19:54:30 10° SSW 19:57:34 36° SE 20:00:40 10° ENE
STARLINK-1174 4.3 19:56:04 10° SSW 19:59:10 38° SE 20:02:19 10° ENE
STARLINK-1132 4.2 19:56:54 10° SSW 20:00:13 44° SE 20:03:34 10° ENE
STARLINK-1180 4.2 19:59:29 10° SSW 20:02:39 42° SE 20:05:51 10° ENE
STARLINK-1177 4.0 20:00:00 10° SSW 20:03:20 48° SE 20:06:43 10° ENE
STARLINK-1153 4.1 20:00:50 10° SSW 20:04:00 43° SE 20:07:12 10° ENE
FENGYUN 3A 3.8 20:00:33 10° NNE 20:05:58 87° ESE 20:11:21 10° SSW
STARLINK-1167 3.9 20:02:38 10° SSW 20:06:00 52° SE 20:09:24 10° NE
Meteor 1-31 Rocket 3.4 20:05:37 10° N 20:09:14 36° WNW 20:12:48 10° SW
Cosmos 2266 Rocket 4.4 20:06:09 10° S 20:12:29 75° E 20:18:54 10° N
